Regional Weather Roundup
Issued by NWS Little Rock, AR

Home | Current Version | Previous Version | Graphics & Text | Print | Product List | Glossary On
Versions: 1 2 3 4 5 6 7 8 9 10 11 12 13 14 15 16 17 18 19 20 21 22 23 24 25 26 27 28 29 30 31 32 33 34 35 36 37 38 39 40 41 42 43 44 45 46 47 48 49 50
000
ASUS44 KLZK 171105
RWRLZK

WEATHER ROUNDUP FOR ARKANSAS
NATIONAL WEATHER SERVICE LITTLE ROCK AR
500 AM CST SUN DEC 17 2017

NOTE: "FAIR" INDICATES FEW OR NO CLOUDS BELOW 12,000 FEET WITH NO
SIGNIFICANT WEATHER AND/OR OBSTRUCTIONS TO VISIBILITY.

ARZ001-003-010-029-171200-
NORTHWEST ARKANSAS

CITY           SKY/WX    TMP DP  RH WIND       PRES   REMARKS
FAYETTEVILLE   CLOUDY    44  43  96 W5        30.01R
FORT SMITH     CLOUDY    45  43  93 CALM      30.04R
HARRISON       LGT RAIN  41  41 100 SE10      29.97F VSB 1
BENTONVILLE    CLOUDY    42  41  96 W3        30.02R
ROGERS         CLOUDY    42  41  96 CALM      30.01R
SILOAM SPGS    LGT RAIN  42  41  96 SW3       30.01F FOG
$$

ARZ004-005-016-171200-
NORTH CENTRAL ARKANSAS

CITY           SKY/WX    TMP DP  RH WIND       PRES   REMARKS
BATESVILLE     LGT RAIN  43  42  97 SE7       30.11F
FLIPPIN        RAIN      42  41  96 E6        30.03F FOG
MTN HOME       LGT RAIN  41  41 100 E5        30.02F
$$

ARZ040-041-171200-
WEST CENTRAL ARKANSAS

CITY           SKY/WX    TMP DP  RH WIND       PRES   REMARKS
MENA           CLOUDY    45  45 100 W5        30.05R
MOUNT IDA      MOCLDY    43  43 100 CALM      30.01S
$$

ARZ009-017-025-026-028-171200-
NORTHEAST ARKANSAS

CITY           SKY/WX    TMP DP  RH WIND       PRES   REMARKS
JONESBORO      LGT RAIN  42  42 100 E6        30.12F
NEWPORT        LGT RAIN  42  41  96 E9        30.11F FOG
WALNUT RIDGE   LGT RAIN  41  41 100 SE8       30.10F FOG
BLYTHEVILLE    RAIN      42  41  96 SW12      30.20R
$$

ARZ022-023-033-042-044-171200-
CENTRAL ARKANSAS

CITY           SKY/WX    TMP DP  RH WIND       PRES   REMARKS
LITTLE ROCK    CLOUDY    42  42 100 E7        30.07F FOG
N LITTLE ROCK    N/A     42  41  95 E8        30.08F
JACKSONVILLE   CLOUDY    43  43  99 E6        30.07F
SEARCY         LGT RAIN  43  43 100 E7        30.11S FOG
HOT SPRINGS    CLOUDY    44  44 100 SE6       30.05R
RUSSELLVILLE   CLOUDY    44  43  96 CALM      30.03F
CLINTON        CLOUDY    43  43 100 CALM      30.06F
$$

ARZ036-171200-
EAST ARKANSAS

CITY           SKY/WX    TMP DP  RH WIND       PRES   REMARKS
WEST MEMPHIS   RAIN      41  41 100 SW5       30.18S FOG
$$

ARZ050-053-066-070-073-171200-
SOUTHWEST ARKANSAS

CITY           SKY/WX    TMP DP  RH WIND       PRES   REMARKS
ARKADELPHIA    CLOUDY    43  42  97 CALM      30.07R
CAMDEN         CLOUDY    43  41  93 CALM      30.06F
TEXARKANA      CLOUDY    43  43 100 E3        30.07R
EL DORADO      LGT RAIN  44  44 100 E6        30.07R
DE QUEEN       CLOUDY    44  44 100 CALM      30.07R
$$

ARZ056-057-069-171200-
SOUTHEAST ARKANSAS

CITY           SKY/WX    TMP DP  RH WIND       PRES   REMARKS
PINE BLUFF     LGT RAIN  43  42  97 E6        30.09F
STUTTGART      LGT RAIN  43  42  97 E10       30.07F FOG
MONTICELLO     LGT RAIN  43  41  93 NE9       30.08F

$$





USA.gov is the U.S. government's official web portal to all federal, state and local government web resources and services.